2020-053A

Last updated on Oct. 31, 2020, 5:53 a.m. UTC

1 45985U 20053A   20304.68913660 -.00000328  00000-0  10000-3 0  9997
2 45985   0.2964 260.5085 2250044 198.0211 288.6700  1.00294160  1037
UTC
Height (km)
Latitude
Longitude
Inclination
Orbital Period
UTC large
Height (km)
Speed (km/s)
/
Latitude / Longitude
Inclination (degrees)
Orbital Period (minutes)
Azimuth
Elevation
Range (km)
Doppler Factor
iOS Compass Heading
iOS Angle

Next 30 passes for location: Hong Kong

Rise time Rise Azimuth (degrees) Set time Set Azimuth (degrees) Duration Max altitude (degrees)

No matching passes for this satellites